• Em Portugal
  • Lista de países
  • Para 7 dias
  • Temperatura da água
  • Mapas de satélite
  • Mapa do tempo
  • Widgets de tempo
  • user-avatar
    Iniciar Sessão

    Previsão horária em Taunsvil

    Hoje, 28 Maio, Segunda-feira

    Tempo Temperatura Precipitação Vento Pressão Humidade
    00:00 +19°C° 0 mm 5 m/s 756 mmHg 94%
    01:00 +19°C° 0 mm 5 m/s 756 mmHg 96%
    02:00 +19°C° 0,1 mm 5 m/s 755 mmHg 96%
    03:00 +19°C° 0,1 mm 5 m/s 755 mmHg 96%
    04:00 +17°C° 0 mm 5 m/s 755 mmHg 97%
    05:00 +17°C° 0,1 mm 5 m/s 755 mmHg 96%
    06:00 +19°C° 0,1 mm 5 m/s 756 mmHg 96%
    07:00 +19°C° 0,1 mm 5 m/s 756 mmHg 96%
    08:00 +20°C° 0,2 mm 5 m/s 756 mmHg 89%
    09:00 +22°C° 0,2 mm 5 m/s 756 mmHg 81%
    10:00 +24°C° 0,2 mm 6 m/s 756 mmHg 74%
    11:00 +26°C° 0,2 mm 6 m/s 756 mmHg 70%
    12:00 +27°C° 0,2 mm 6 m/s 756 mmHg 65%
    13:00 +28°C° 0,2 mm 6 m/s 755 mmHg 61%
    14:00 +27°C° 0,1 mm 7 m/s 755 mmHg 61%
    15:00 +27°C° 0,1 mm 7 m/s 755 mmHg 61%
    16:00 +27°C° 0,1 mm 7 m/s 755 mmHg 62%
    17:00 +24°C° 0 mm 7 m/s 755 mmHg 69%
    18:00 +23°C° 0 mm 7 m/s 755 mmHg 75%
    19:00 +21°C° 0 mm 6 m/s 755 mmHg 82%
    20:00 +21°C° 0,1 mm 6 m/s 756 mmHg 84%
    21:00 +21°C° 0,1 mm 6 m/s 756 mmHg 86%
    22:00 +20°C° 0,1 mm 6 m/s 756 mmHg 88%
    23:00 +20°C° 0 mm 6 m/s 756 mmHg 90%

    Amanhã, 29 Maio, Terça-feira

    Tempo Temperatura Precipitação Vento Pressão Humidade
    00:00 +19°C° 0 mm 6 m/s 756 mmHg 92%
    01:00 +19°C° 0 mm 5 m/s 756 mmHg 95%
    02:00 +19°C° 0 mm 5 m/s 755 mmHg 95%
    03:00 +17°C° 0 mm 5 m/s 755 mmHg 96%
    04:00 +17°C° 0 mm 5 m/s 755 mmHg 97%
    05:00 +17°C° 0 mm 5 m/s 755 mmHg 97%
    06:00 +17°C° 0 mm 5 m/s 756 mmHg 97%
    07:00 +17°C° 0 mm 5 m/s 756 mmHg 97%
    08:00 +20°C° 0 mm 5 m/s 756 mmHg 88%
    09:00 +22°C° 0 mm 6 m/s 756 mmHg 78%
    10:00 +24°C° 0 mm 6 m/s 757 mmHg 69%
    11:00 +26°C° 0,1 mm 6 m/s 756 mmHg 66%
    12:00 +27°C° 0,1 mm 6 m/s 756 mmHg 62%
    13:00 +28°C° 0,1 mm 6 m/s 755 mmHg 59%
    14:00 +27°C° 0,2 mm 6 m/s 755 mmHg 61%
    15:00 +27°C° 0,2 mm 5 m/s 755 mmHg 64%
    16:00 +27°C° 0,2 mm 5 m/s 754 mmHg 66%
    17:00 +25°C° 0,1 mm 5 m/s 755 mmHg 73%
    18:00 +22°C° 0,1 mm 5 m/s 755 mmHg 81%
    19:00 +21°C° 0,1 mm 5 m/s 755 mmHg 88%
    20:00 +20°C° 0,1 mm 5 m/s 756 mmHg 89%
    21:00 +20°C° 0,1 mm 5 m/s 756 mmHg 91%
    22:00 +20°C° 0,1 mm 5 m/s 757 mmHg 92%
    23:00 +19°C° 0 mm 5 m/s 757 mmHg 93%

    Depois de amanhã, 30 Maio, Quarta-feira

    Tempo Temperatura Precipitação Vento Pressão Humidade
    00:00 +19°C° 0 mm 5 m/s 757 mmHg 94%
    01:00 +17°C° 0 mm 5 m/s 757 mmHg 95%
    02:00 +17°C° 0 mm 5 m/s 756 mmHg 95%
    03:00 +16°C° 0 mm 5 m/s 756 mmHg 96%
    04:00 +16°C° 0 mm 5 m/s 756 mmHg 96%
    05:00 +16°C° 0 mm 5 m/s 756 mmHg 96%
    06:00 +16°C° 0 mm 5 m/s 757 mmHg 96%
    07:00 +16°C° 0 mm 5 m/s 757 mmHg 96%
    08:00 +19°C° 0 mm 5 m/s 757 mmHg 85%
    09:00 +21°C° 0 mm 5 m/s 757 mmHg 74%
    10:00 +25°C° 0 mm 5 m/s 758 mmHg 63%
    11:00 +26°C° 0 mm 5 m/s 757 mmHg 56%
    12:00 +27°C° 0 mm 5 m/s 757 mmHg 48%
    13:00 +29°C° 0 mm 5 m/s 756 mmHg 41%
    14:00 +29°C° 0 mm 5 m/s 756 mmHg 41%
    15:00 +29°C° 0 mm 5 m/s 755 mmHg 41%
    16:00 +28°C° 0 mm 5 m/s 755 mmHg 42%
    17:00 +26°C° 0,1 mm 5 m/s 756 mmHg 54%
    18:00 +23°C° 0,1 mm 5 m/s 756 mmHg 65%
    19:00 +21°C° 0,1 mm 5 m/s 756 mmHg 77%
    20:00 +21°C° 0,3 mm 5 m/s 757 mmHg 81%
    21:00 +20°C° 0,3 mm 5 m/s 757 mmHg 85%
    22:00 +20°C° 0,3 mm 6 m/s 758 mmHg 89%
    23:00 +19°C° 0,1 mm 5 m/s 758 mmHg 89%

    31 Maio, Quinta-feira

    Tempo Temperatura Precipitação Vento Pressão Humidade
    00:00 +19°C° 0,1 mm 5 m/s 757 mmHg 90%
    01:00 +17°C° 0,1 mm 5 m/s 757 mmHg 90%
    02:00 +17°C° 0 mm 5 m/s 757 mmHg 91%
    03:00 +16°C° 0 mm 5 m/s 757 mmHg 91%
    04:00 +16°C° 0 mm 5 m/s 756 mmHg 92%
    05:00 +16°C° 0 mm 5 m/s 757 mmHg 92%
    06:00 +16°C° 0 mm 5 m/s 757 mmHg 93%
    07:00 +15°C° 0 mm 5 m/s 758 mmHg 93%
    08:00 +19°C° 0 mm 5 m/s 758 mmHg 81%
    09:00 +21°C° 0 mm 5 m/s 758 mmHg 69%
    10:00 +23°C° 0 mm 6 m/s 759 mmHg 57%
    11:00 +25°C° 0 mm 5 m/s 758 mmHg 50%
    12:00 +27°C° 0 mm 5 m/s 757 mmHg 43%
    13:00 +28°C° 0 mm 5 m/s 757 mmHg 36%
    14:00 +28°C° 0 mm 5 m/s 756 mmHg 37%
    15:00 +27°C° 0 mm 5 m/s 756 mmHg 38%
    16:00 +27°C° 0 mm 5 m/s 756 mmHg 39%
    17:00 +25°C° 0 mm 5 m/s 756 mmHg 48%
    18:00 +22°C° 0 mm 5 m/s 757 mmHg 58%
    19:00 +19°C° 0 mm 5 m/s 757 mmHg 68%
    20:00 +19°C° 0 mm 5 m/s 757 mmHg 67%
    21:00 +17°C° 0 mm 5 m/s 758 mmHg 67%
    22:00 +16°C° 0 mm 5 m/s 758 mmHg 67%
    23:00 +16°C° 0 mm 5 m/s 758 mmHg 62%

    1 Junho, Sexta-feira

    Tempo Temperatura Precipitação Vento Pressão Humidade
    00:00 +15°C° 0 mm 5 m/s 758 mmHg 57%
    01:00 +14°C° 0 mm 5 m/s 757 mmHg 52%
    02:00 +14°C° 0 mm 5 m/s 757 mmHg 54%
    03:00 +14°C° 0 mm 6 m/s 757 mmHg 56%
    04:00 +13°C° 0 mm 6 m/s 757 mmHg 57%
    05:00 +13°C° 0 mm 6 m/s 757 mmHg 62%
    06:00 +13°C° 0 mm 6 m/s 758 mmHg 67%
    07:00 +13°C° 0 mm 6 m/s 758 mmHg 72%
    08:00 +16°C° 0 mm 6 m/s 758 mmHg 65%
    09:00 +19°C° 0 mm 6 m/s 758 mmHg 59%
    10:00 +22°C° 0 mm 6 m/s 759 mmHg 53%
    11:00 +23°C° 0 mm 5 m/s 758 mmHg 50%
    12:00 +26°C° 0 mm 5 m/s 757 mmHg 47%
    13:00 +27°C° 0 mm 5 m/s 757 mmHg 44%
    14:00 +27°C° 0 mm 5 m/s 756 mmHg 44%
    15:00 +27°C° 0 mm 5 m/s 756 mmHg 44%
    16:00 +27°C° 0 mm 5 m/s 756 mmHg 44%
    17:00 +23°C° 0 mm 5 m/s 756 mmHg 54%
    18:00 +21°C° 0 mm 4 m/s 757 mmHg 64%
    19:00 +19°C° 0 mm 4 m/s 757 mmHg 73%
    20:00 +18°C° 0 mm 4 m/s 757 mmHg 73%
    21:00 +17°C° 0 mm 4 m/s 758 mmHg 73%
    22:00 +17°C° 0 mm 4 m/s 758 mmHg 73%
    23:00 +15°C° 0 mm 4 m/s 758 mmHg 70%

    2 Junho, Sábado

    Tempo Temperatura Precipitação Vento Pressão Humidade
    00:00 +14°C° 0 mm 4 m/s 757 mmHg 66%
    01:00 +14°C° 0 mm 4 m/s 757 mmHg 63%
    02:00 +13°C° 0 mm 4 m/s 757 mmHg 60%
    03:00 +13°C° 0 mm 4 m/s 757 mmHg 58%
    04:00 +12°C° 0 mm 4 m/s 757 mmHg 56%
    05:00 +12°C° 0 mm 4 m/s 757 mmHg 53%
    06:00 +12°C° 0 mm 4 m/s 757 mmHg 51%
    07:00 +12°C° 0 mm 4 m/s 758 mmHg 48%
    08:00 +15°C° 0 mm 5 m/s 758 mmHg 44%
    09:00 +19°C° 0 mm 5 m/s 758 mmHg 39%
    10:00 +22°C° 0 mm 5 m/s 758 mmHg 35%
    11:00 +23°C° 0 mm 5 m/s 757 mmHg 31%
    12:00 +26°C° 0 mm 4 m/s 757 mmHg 28%
    13:00 +27°C° 0 mm 4 m/s 756 mmHg 24%
    14:00 +27°C° 0 mm 4 m/s 756 mmHg 24%
    15:00 +27°C° 0 mm 4 m/s 755 mmHg 25%
    16:00 +27°C° 0 mm 4 m/s 755 mmHg 25%
    17:00 +23°C° 0 mm 4 m/s 756 mmHg 33%
    18:00 +21°C° 0 mm 3 m/s 756 mmHg 40%
    19:00 +18°C° 0 mm 3 m/s 756 mmHg 48%
    20:00 +17°C° 0 mm 3 m/s 757 mmHg 51%
    21:00 +17°C° 0 mm 3 m/s 757 mmHg 53%
    22:00 +16°C° 0 mm 3 m/s 757 mmHg 56%
    23:00 +14°C° 0 mm 3 m/s 757 mmHg 54%
    Mostrar mais